Location: *
(17.3280°S, 114.7300°W)
Time: 06:48:55
(UTC+00:00)

Meteor 1-21 Rocket - Pass Details

Date: 05 August 2020
Orbit: 832 x 908 km, 81.2° (Epoch: 21 September)

Event Time Altitude Azimuth Distance (km) Brightness Sun altitude
Rises 12:13:08 0° 347° (NNW) 3,363 7.3 -26.2°
Reaches altitude 10° 12:15:32 10° 344° (NNW) 2,439 6.5 -25.7°
Maximum altitude 12:20:59 62° 263° (W) 947 4.1 -24.4°
Drops below altitude 10° 12:26:35 10° 183° (S) 2,499 6.5 -23.1°
Sets 12:29:04 0° 179° (S) 3,452 7.3 -22.5°
